Orbital Elements at Epoch 2459000.5 (2020-May-31.0) TDB
Reference: JPL 22 (heliocentric ecliptic J2000)
Element | Value | Uncertainty (1-sigma) | Units |
e | .1531908742793643 | 3.0768e-08 | |
a | 2.426869622498257 | 1.0426e-08 | au |
q | 2.055095343265718 | 7.4835e-08 | au |
i | 6.746165710481258 | 4.2188e-06 | deg |
node | 264.3179178672714 | 4.5635e-05 | deg |
peri | 143.878889087863 | 5.1615e-05 | deg |
M | 116.5036371575342 | 2.4746e-05 | deg |
tp | 2458553.605429382835 (2019-Mar-11.10542938) | 9.3363e-05 | TDB |
period | 1380.918650673864 3.78 | 8.8986e-06 2.436e-08 | d yr |
n | .260696022770296 | 1.6799e-09 | deg/d |
Q | 2.798643901730796 | 1.2023e-08 | au |
|
| | Orbit Determination Parameters
Additional Information
|